Weather History for KCFE - October, 2012

Change the Weather History Date:

Friday, October 19, 2012

  Actual Average (KSTC) Record (KSTC)
Temperature  
Mean Temperature 46 °F 45 °F  
Max Temperature 54 °F 55 °F 85 °F (2000)
Min Temperature 37 °F 34 °F 9 °F (1972)
Degree Days  
Heating Degree Days 19 20  
Month to date heating degree days 321  
Since 1 July heating degree days 607  
Cooling Degree Days 0 0  
Month to date cooling degree days 0  
Year to date cooling degree days 463  
Moisture  
Dew Point 43 °F    
Average Humidity 86    
Maximum Humidity 98    
Minimum Humidity 62    
Precipitation  
Precipitation 0.04 in 0.08 in 1.65 in (1934)
Month to date precipitation 1.72  
Year to date precipitation 24.76  
Snow  
Snow 0.00 in 0.00 in 3.50 in (1916)
Month to date snowfall 0.2  
Since 1 July snowfall 0.2  
Since 1 September snowfall 0.2  
Snow Depth -    
Sea Level Pressure  
Sea Level Pressure 29.60 in    
Wind  
Wind Speed 3 mph (NNW)    
Max Wind Speed 13 mph    
Max Gust Speed 16 mph    
Visibility 8 miles    
Events Rain    
T = Trace of Precipitation, MM = Missing Value Source: NWS Daily Summary

Daily Weather History Graph

Daily Weather History Graph

Search for Another Location

Airport or City:

Trip Planner

Search our weather history database for the weather conditions in past years. The results will help you decide how hot, cold, wet, or windy it might be!

Date:

Astronomy

Oct. 19, 2012 Rise Set
Actual Time 7:37 AM CDT 6:22 PM CDT
Civil Twilight 7:07 AM CDT 6:52 PM CDT
Nautical Twilight 6:33 AM CDT 7:26 PM CDT
Astronomical Twilight 5:58 AM CDT 8:00 PM CDT
Moon 12:30 PM CDT (10/19) 9:52 PM CDT (10/19)
Length of Visible Light 11h 45m
Length of Day
10h 45m
Waxing Crescent, 24% of the Moon is Illuminated
Oct 19
Waxing Crescent
Oct 21
First Quarter
Oct 29
Full
Nov 6
Last Quarter
Nov 13
New

Hourly Weather History & Observations

Time (CDT) Temp. Windchill Dew Point Humidity Pressure Visibility Wind Dir Wind Speed Gust Speed Precip Events Conditions
12:13 AM 44.6 °F - 43.9 °F 97% 29.41 in 4.0 mi Calm Calm - N/A Rain Light Rain
12:34 AM 44.6 °F - 43.9 °F 97% 29.42 in 5.0 mi Calm Calm - 0.01 in Rain Light Rain
12:53 AM 45.0 °F - 44.4 °F 98% 29.42 in 5.0 mi Calm Calm - 0.02 in Rain Rain
1:13 AM 45.5 °F - 44.8 °F 97% 29.43 in 5.0 mi Calm Calm - N/A   Drizzle
1:34 AM 45.5 °F - 44.8 °F 97% 29.44 in 5.0 mi Calm Calm - N/A   Light Drizzle
1:53 AM 46.2 °F 45.0 °F 45.5 °F 97% 29.45 in 10.0 mi NNW 3.5 mph - N/A   Overcast
2:13 AM 46.4 °F - 45.5 °F 97% 29.45 in 10.0 mi Calm Calm - 0.01 in   Light Drizzle
2:34 AM 46.4 °F - 45.5 °F 97% 29.46 in 10.0 mi Calm Calm - 0.01 in   Light Drizzle
2:53 AM 46.4 °F 45.2 °F 45.5 °F 97% 29.47 in 7.0 mi NW 3.5 mph - 0.01 in   Overcast
3:13 AM 46.4 °F 44.3 °F 45.5 °F 97% 29.47 in 5.0 mi WNW 4.6 mph - N/A   Overcast
3:33 AM 46.4 °F 45.2 °F 45.5 °F 97% 29.47 in 5.0 mi NW 3.5 mph - N/A   Overcast
3:53 AM 46.4 °F 45.2 °F 45.5 °F 97% 29.47 in 5.0 mi NW 3.5 mph - N/A Rain Light Rain
4:14 AM 46.4 °F 45.2 °F 45.5 °F 97% 29.48 in 5.0 mi NW 3.5 mph - N/A   Overcast
4:33 AM 46.4 °F 45.2 °F 45.5 °F 97% 29.48 in 7.0 mi NW 3.5 mph - N/A   Overcast
4:53 AM 46.4 °F - 45.1 °F 95% 29.49 in 10.0 mi Calm Calm - N/A   Overcast
5:14 AM 46.4 °F 44.3 °F 45.1 °F 95% 29.49 in 10.0 mi WNW 4.6 mph - N/A   Overcast
5:33 AM 46.4 °F - 45.1 °F 95% 29.50 in 5.0 mi Calm Calm - N/A   Overcast
5:53 AM 46.4 °F 45.2 °F 45.5 °F 97% 29.52 in 7.0 mi NW 3.5 mph - N/A   Overcast
6:14 AM 46.4 °F 44.3 °F 45.5 °F 97% 29.53 in 7.0 mi NW 4.6 mph - N/A   Overcast
6:33 AM 46.4 °F 45.2 °F 45.5 °F 97% 29.52 in 3.0 mi WNW 3.5 mph - N/A   Drizzle
6:53 AM 46.4 °F 45.2 °F 45.5 °F 97% 29.52 in 7.0 mi West 3.5 mph - N/A   Overcast
7:13 AM 46.4 °F - 45.5 °F 97% 29.53 in 7.0 mi Calm Calm - N/A   Overcast
7:33 AM 46.4 °F 45.2 °F 45.5 °F 97% 29.53 in 10.0 mi NNW 3.5 mph - N/A   Overcast
7:53 AM 46.4 °F 45.2 °F 45.5 °F 97% 29.54 in 7.0 mi NW 3.5 mph - N/A   Overcast
8:13 AM 46.6 °F - 45.7 °F 97% 29.54 in 5.0 mi NW 4.6 mph - N/A   Overcast
8:33 AM 47.1 °F - 46.0 °F 96% 29.55 in 5.0 mi NW 3.5 mph - N/A   Overcast
8:53 AM 47.1 °F - 46.0 °F 96% 29.55 in 5.0 mi NNW 3.5 mph - N/A   Overcast
9:13 AM 47.8 °F - 46.6 °F 95% 29.56 in 10.0 mi NNW 4.6 mph - N/A Rain Light Rain
9:33 AM 47.8 °F - 46.6 °F 95% 29.57 in 10.0 mi NNW 4.6 mph - N/A Rain Light Rain
9:53 AM 47.8 °F - 46.4 °F 95% 29.58 in 10.0 mi NNW 8.1 mph - N/A Rain Light Rain
10:14 AM 47.8 °F - 46.4 °F 95% 29.59 in 3.0 mi NW 6.9 mph - 0.01 in Rain Light Rain
10:33 AM 48.2 °F - 46.8 °F 95% 29.59 in 5.0 mi NW 6.9 mph - 0.01 in   Light Drizzle
10:53 AM 48.7 °F - 47.3 °F 95% 29.60 in 7.0 mi NNW 8.1 mph - 0.01 in   Overcast
11:14 AM 49.1 °F - 46.9 °F 92% 29.60 in 10.0 mi NNW 6.9 mph - N/A   Overcast
11:33 AM 49.6 °F - 46.6 °F 89% 29.61 in 10.0 mi NNW 6.9 mph - N/A   Overcast
11:53 AM 50.5 °F - 46.8 °F 87% 29.61 in 10.0 mi NNW 9.2 mph - N/A   Overcast
12:14 PM 50.0 °F - 45.9 °F 86% 29.62 in 10.0 mi North 11.5 mph 16.1 mph N/A Rain Rain
12:33 PM 49.8 °F - 46.9 °F 90% 29.62 in 10.0 mi North 9.2 mph - N/A   Overcast
12:53 PM 50.0 °F - 45.1 °F 83% 29.62 in 10.0 mi North 6.9 mph 16.1 mph N/A   Overcast
1:14 PM 52.0 °F - 46.4 °F 81% 29.63 in 10.0 mi North 9.2 mph - N/A   Overcast
1:33 PM 51.4 °F - 44.8 °F 78% 29.63 in 10.0 mi North 11.5 mph - N/A   Overcast
1:53 PM 52.3 °F - 44.1 °F 73% 29.63 in 10.0 mi North 9.2 mph - N/A   Overcast
2:14 PM 52.2 °F - 43.7 °F 73% 29.64 in 10.0 mi NNE 8.1 mph - N/A   Overcast
2:33 PM 53.6 °F - 41.4 °F 63% 29.63 in 10.0 mi NNE 12.7 mph - N/A   Mostly Cloudy
2:53 PM 53.6 °F - 41.4 °F 63% 29.64 in 10.0 mi North 8.1 mph - N/A   Mostly Cloudy
3:13 PM 53.2 °F - 41.7 °F 65% 29.64 in 10.0 mi North 9.2 mph - N/A   Overcast
3:33 PM 53.2 °F - 42.6 °F 67% 29.65 in 10.0 mi NNE 9.2 mph - N/A   Overcast
3:53 PM 53.2 °F - 41.2 °F 64% 29.65 in 10.0 mi NNE 8.1 mph - N/A   Overcast
4:13 PM 52.3 °F - 41.7 °F 67% 29.66 in 10.0 mi NNE 8.1 mph - N/A   Mostly Cloudy
4:33 PM 54.0 °F - 41.2 °F 62% 29.65 in 10.0 mi NNE 11.5 mph 16.1 mph N/A   Mostly Cloudy
4:53 PM 52.3 °F - 39.9 °F 63% 29.66 in 10.0 mi NNE 4.6 mph - N/A   Overcast
5:13 PM 52.3 °F - 39.9 °F 63% 29.67 in 10.0 mi NNE 9.2 mph - N/A   Overcast
5:33 PM 52.2 °F - 40.5 °F 64% 29.67 in 10.0 mi NE 4.6 mph - N/A   Overcast
5:53 PM 51.4 °F - 40.5 °F 66% 29.68 in 10.0 mi NE 3.5 mph - N/A   Overcast
6:13 PM 50.0 °F - 40.1 °F 69% 29.68 in 10.0 mi NNE 3.5 mph - N/A   Mostly Cloudy
6:33 PM 48.6 °F - 39.9 °F 72% 29.69 in 10.0 mi NE 3.5 mph - N/A   Mostly Cloudy
6:53 PM 47.8 °F - 39.6 °F 73% 29.70 in 10.0 mi NE 3.5 mph - N/A   Mostly Cloudy
7:13 PM 47.8 °F - 39.9 °F 74% 29.70 in 10.0 mi ENE 4.6 mph - N/A   Mostly Cloudy
7:33 PM 47.8 °F - 40.1 °F 75% 29.72 in 10.0 mi Calm Calm - N/A   Overcast
7:53 PM 47.7 °F - 40.6 °F 77% 29.72 in 10.0 mi Calm Calm - N/A   Overcast
8:13 PM 46.0 °F - 39.7 °F 79% 29.72 in 10.0 mi Calm Calm - N/A   Mostly Cloudy
8:33 PM 45.1 °F - 39.2 °F 80% 29.72 in 10.0 mi Calm Calm - N/A   Scattered Clouds
8:53 PM 44.1 °F - 39.4 °F 84% 29.73 in 10.0 mi Calm Calm - N/A   Scattered Clouds
9:13 PM 43.5 °F - 39.2 °F 85% 29.73 in 10.0 mi Calm Calm - N/A   Mostly Cloudy
9:33 PM 44.6 °F - 39.4 °F 82% 29.73 in 10.0 mi Calm Calm - N/A   Overcast
9:53 PM 43.7 °F - 40.3 °F 88% 29.74 in 10.0 mi Calm Calm - N/A   Overcast
10:13 PM 43.0 °F - 40.3 °F 90% 29.74 in 10.0 mi Calm Calm - N/A   Scattered Clouds
10:33 PM 39.2 °F - 36.9 °F 91% 29.73 in 10.0 mi Calm Calm - N/A   Clear
10:53 PM 39.4 °F - 37.2 °F 92% 29.73 in 10.0 mi Calm Calm - N/A   Clear
11:13 PM 38.8 °F - 37.8 °F 96% 29.74 in 10.0 mi Calm Calm - N/A   Clear
11:34 PM 39.6 °F - 37.9 °F 94% 29.74 in 10.0 mi Calm Calm - N/A   Clear
11:53 PM 37.8 °F - 36.9 °F 97% 29.74 in 7.0 mi Calm Calm - N/A   Clear